Dewpoint
53 55 56 54 54 56 56 58 60 62 60 57 52 57 59 62 61 58 57 53 53 53 52 52 49 46 46 45 44 41 40 38
51 53 55 55 57 55 56 57 59 60 58 54 53 56 59 60 60 59 57 54 52 53 51 50 48 46 46 46 41 41 38 40
50 52 53 54 55 57 57 57 58 59 56 53 54 56 57 60 60 59 57 55 52 52 51 48 48 46 46 44 41 37 37 39
49 51 53 54 54 55 55 56 57 59 57 54 57 58 58 58 57 58 57 55 52 50 51 48 48 45 42 43 41 39 37 39
49 52 54 54 55 56 56 56 56 58 59 56 57 54 55 57 58 57 54 54 52 48 48 48 47 40 39 39 38 42 41 40
48 50 52 55 56 56 58 58 57 57 59 58 57 57 56 57 56 54 53 51 50 47 46 45 43 39 40 40 43 43 43 40
48 50 52 53 56 57 58 58 57 58 59 59 59 58 57 56 53 50 49 46 47 45 42 44 42 39 42 44 46 46 42 40
48 49 50 53 55 57 58 58 57 58 59 59 59 59 59 56 53 51 49 46 45 46 44 43 43 43 45 44 45 44 41 40
46 48 50 52 55 57 58 57 57 57 58 59 58 58 58 55 54 52 50 47 45 44 44 44 41 44 44 46 46 42 42 39
41 45 49 52 54 57 59 57 57 57 58 59 59 59 57 56 54 52 50 47 44 44 45 43 43 44 45 46 42 41 40 41
39 42 46 49 52 55 58 58 57 57 58 59 59 59 57 56 54 52 48 47 46 44 43 42 44 44 46 43 41 39 39 40
44 44 45 47 50 53 55 57 57 57 58 59 60 59 57 55 53 52 51 50 46 43 41 44 42 44 42 41 38 35 39 38
45 47 48 49 51 52 53 54 55 56 57 58 59 58 57 56 55 53 52 49 44 41 42 40 38 39 37 36 34 34 36 37
44 49 50 50 52 53 53 55 55 55 56 55 56 56 55 54 52 51 48 43 43 43 39 36 36 36 34 36 36 38 41 37
43 48 51 52 53 54 54 55 55 54 53 54 54 54 53 53 52 49 48 45 42 39 38 37 36 34 32 36 40 42 41 36
46 48 50 51 53 53 52 53 52 52 51 50 51 51 51 50 49 48 46 44 40 37 36 37 36 36 40 42 41 40 39 36
43 43 43 43 45 47 49 49 49 49 48 48 47 47 46 45 43 41 40 38 36 36 36 38 41 41 39 39 39 40 37 35
39 41 43 43 44 46 46 46 46 46 46 45 44 44 42 42 40 37 36 35 37 37 39 39 40 40 39 38 36 36 38 38
38 39 40 41 42 42 43 42 42 42 41 41 42 41 40 38 37 37 37 39 40 41 41 39 38 38 37 36 36 38 39 34
Lifted_Index
-2 -3 -3 -2 -1 -1 -1 -1 -2 -3 -2 -1 -1 -2 -3 -4 -3 -2 -1 -1 -0 0 1 2 3 5 6 7 8 9 9 10
-2 -2 -2 -2 -2 -1 -1 -2 -2 -3 -2 -1 -1 -2 -3 -3 -3 -2 -1 -1 -0 1 1 2 3 5 6 7 8 8 9 9
-2 -2 -2 -2 -2 -2 -2 -3 -3 -3 -2 -1 -1 -2 -3 -3 -2 -2 -1 -1 -0 1 1 2 4 6 7 7 8 8 8 8
-3 -3 -3 -3 -3 -3 -3 -3 -3 -3 -3 -2 -2 -2 -2 -2 -2 -1 -1 -1 0 1 1 3 5 6 7 8 8 8 8 7
-4 -4 -4 -3 -3 -3 -3 -4 -4 -4 -3 -3 -2 -2 -2 -2 -1 -1 -1 0 1 1 2 4 6 7 7 8 9 8 7 6
-4 -4 -4 -4 -4 -4 -4 -4 -4 -4 -4 -3 -3 -3 -3 -2 -1 -1 -0 0 1 2 3 5 6 7 8 9 9 8 6 5
-4 -4 -4 -4 -4 -4 -4 -4 -4 -4 -4 -4 -4 -4 -3 -2 -1 -0 -0 0 1 3 4 6 7 7 8 9 9 7 6 6
-4 -4 -4 -4 -5 -5 -5 -5 -5 -4 -4 -4 -4 -3 -3 -2 -1 -0 -0 0 1 3 4 6 6 7 8 9 8 7 7 7
-4 -4 -4 -5 -5 -5 -5 -5 -5 -4 -4 -4 -3 -3 -2 -1 -1 -1 -1 -0 1 3 4 5 6 8 9 9 7 7 8 9
-3 -3 -4 -5 -5 -5 -5 -5 -5 -5 -4 -4 -3 -3 -2 -2 -1 -1 -1 -0 1 2 3 5 7 9 9 8 8 9 10 10
-1 -2 -3 -3 -4 -5 -5 -5 -5 -5 -5 -4 -3 -3 -3 -2 -1 -1 -1 -0 0 2 3 5 7 8 9 8 9 10 10 9
-1 -1 -2 -2 -3 -4 -4 -4 -4 -5 -5 -4 -4 -3 -3 -2 -1 -1 -1 -0 0 1 2 4 6 8 9 10 10 10 9 9
-2 -2 -2 -2 -3 -3 -4 -4 -4 -4 -4 -4 -3 -3 -2 -2 -2 -1 -1 -0 0 1 2 4 6 9 10 11 11 10 9 8
-2 -3 -3 -3 -3 -3 -3 -4 -4 -4 -3 -3 -2 -2 -2 -2 -1 -1 -0 0 1 1 2 4 7 10 11 11 11 9 8 8
-2 -3 -3 -3 -3 -3 -3 -3 -3 -3 -2 -2 -2 -1 -1 -1 -1 0 1 1 1 2 3 6 9 11 11 11 10 9 8 9
-1 -2 -3 -3 -3 -3 -3 -2 -2 -1 -1 -0 0 1 1 1 1 1 2 2 3 4 6 9 11 12 11 10 9 9 9 9
-0 -1 -2 -2 -2 -1 -1 0 1 2 2 3 3 3 3 3 2 3 3 4 6 7 9 10 11 11 10 9 9 9 9 9
1 1 0 1 1 2 2 3 4 4 4 4 4 4 4 4 4 4 5 6 7 9 10 11 11 10 10 9 9 9 9 9
1 2 2 2 3 4 4 4 5 5 5 5 5 5 4 4 4 5 6 7 8 9 10 11 11 10 9 9 9 9 9 10